Time,TemperatureF,DewpointF,PressureIn,WindDirection,WindDirectionDegrees,WindSpeedMPH,WindSpeedGustMPH,Humidity,HourlyPrecipIn,Conditions,Clouds,dailyrainin,SoftwareType,DateUTC
2013-06-19 00:03:00,66.1,65.0,30.04,NE,55,0.6,1.2,96,0.00,,,0.02,TxWx,2013-06-19 05:03:00,
2013-06-19 00:08:00,66.1,65.0,30.03,NE,55,0.0,0.0,96,0.00,,,0.02,TxWx,2013-06-19 05:08:00,
2013-06-19 00:13:00,66.0,65.0,30.03,NE,55,0.0,0.0,96,0.00,,,0.02,TxWx,2013-06-19 05:13:00,
2013-06-19 00:18:00,66.0,65.0,30.03,NNE,32,0.0,0.0,97,0.00,,,0.02,TxWx,2013-06-19 05:18:00,
2013-06-19 00:23:00,65.9,65.0,30.04,NNE,32,0.0,0.0,97,0.00,,,0.02,TxWx,2013-06-19 05:23:00,
2013-06-19 00:29:00,65.8,65.0,30.04,NE,55,0.6,0.6,97,0.00,,,0.02,TxWx,2013-06-19 05:29:00,
2013-06-19 00:34:00,65.7,65.0,30.04,NE,55,0.6,0.6,97,0.00,,,0.02,TxWx,2013-06-19 05:34:00,
2013-06-19 00:40:00,65.6,65.0,30.04,NW,325,0.6,0.6,97,0.00,,,0.02,TxWx,2013-06-19 05:40:00,
2013-06-19 00:45:00,65.6,65.0,30.04,NNE,32,0.0,0.0,97,0.00,,,0.02,TxWx,2013-06-19 05:45:00,
2013-06-19 00:50:00,65.5,65.0,30.04,North,10,0.0,0.0,97,0.00,,,0.02,TxWx,2013-06-19 05:50:00,
2013-06-19 00:56:00,65.5,64.0,30.05,NE,55,0.0,0.0,97,0.00,,,0.02,TxWx,2013-06-19 05:56:00,
2013-06-19 01:01:00,65.4,64.0,30.04,NE,55,0.0,0.6,97,0.00,,,0.02,TxWx,2013-06-19 06:01:00,
2013-06-19 01:06:00,65.3,64.0,30.04,NE,55,0.0,0.0,97,0.00,,,0.00,TxWx,2013-06-19 06:06:00,
2013-06-19 01:11:00,65.3,64.0,30.04,ENE,77,0.6,0.6,97,0.00,,,0.00,TxWx,2013-06-19 06:11:00,
2013-06-19 01:17:00,65.4,64.0,30.03,NE,55,0.0,0.0,97,0.00,,,0.00,TxWx,2013-06-19 06:17:00,
2013-06-19 01:22:00,65.4,64.0,30.03,NE,55,0.6,0.6,97,0.00,,,0.00,TxWx,2013-06-19 06:22:00,
2013-06-19 01:27:00,65.4,64.0,30.03,ENE,77,1.2,1.9,98,0.00,,,0.00,TxWx,2013-06-19 06:27:00,
2013-06-19 01:32:00,65.4,64.0,30.03,NE,55,0.0,0.6,98,0.00,,,0.00,TxWx,2013-06-19 06:32:00,
2013-06-19 01:37:00,64.9,64.0,30.03,NNW,347,0.0,1.2,98,0.00,,,0.00,TxWx,2013-06-19 06:37:00,
2013-06-19 01:43:00,64.9,64.0,30.03,North,10,0.0,0.6,98,0.00,,,0.00,TxWx,2013-06-19 06:43:00,
2013-06-19 01:48:00,64.8,64.0,30.03,NNE,32,0.0,0.0,98,0.00,,,0.00,TxWx,2013-06-19 06:48:00,
2013-06-19 01:54:00,64.8,64.0,30.04,NNE,32,0.0,0.0,98,0.00,,,0.00,TxWx,2013-06-19 06:54:00,
2013-06-19 02:00:00,64.8,64.0,30.04,NE,55,0.0,0.0,98,0.00,,,0.00,TxWx,2013-06-19 07:00:00,
2013-06-19 02:05:00,64.9,64.0,30.04,NE,55,0.0,0.6,98,0.00,,,0.00,TxWx,2013-06-19 07:05:00,
2013-06-19 02:10:00,64.9,64.0,30.04,NE,55,0.6,0.6,98,0.00,,,0.00,TxWx,2013-06-19 07:10:00,
2013-06-19 02:15:00,64.9,64.0,30.04,North,10,0.0,0.0,98,0.00,,,0.00,TxWx,2013-06-19 07:15:00,
2013-06-19 02:21:00,65.0,64.0,30.04,NE,55,0.0,0.0,98,0.00,,,0.00,TxWx,2013-06-19 07:21:00,
2013-06-19 02:26:00,64.9,64.0,30.04,NNE,32,0.0,0.0,98,0.00,,,0.00,TxWx,2013-06-19 07:26:00,
2013-06-19 02:32:00,64.9,64.0,30.04,NNE,32,0.0,0.0,98,0.00,,,0.00,TxWx,2013-06-19 07:32:00,
2013-06-19 02:37:00,64.9,64.0,30.04,NE,55,0.0,0.6,98,0.00,,,0.00,TxWx,2013-06-19 07:37:00,
2013-06-19 02:42:00,64.8,64.0,30.04,NNE,32,0.0,0.0,98,0.00,,,0.00,TxWx,2013-06-19 07:42:00,
2013-06-19 02:47:00,64.7,65.0,30.04,NNE,32,0.0,0.0,99,0.00,,,0.00,TxWx,2013-06-19 07:47:00,
2013-06-19 02:53:00,64.6,65.0,30.04,NNE,32,0.0,0.6,99,0.00,,,0.00,TxWx,2013-06-19 07:53:00,
2013-06-19 02:58:00,64.6,65.0,30.04,NE,55,0.0,0.0,99,0.00,,,0.00,TxWx,2013-06-19 07:58:00,
2013-06-19 03:03:00,64.3,63.0,30.04,NNW,347,0.0,0.6,98,0.00,,,0.00,TxWx,2013-06-19 08:03:00,
2013-06-19 03:08:00,64.3,64.0,30.03,NNE,32,0.0,0.0,99,0.00,,,0.00,TxWx,2013-06-19 08:08:00,
2013-06-19 03:14:00,64.2,64.0,30.03,NNE,32,0.0,0.0,99,0.00,,,0.00,TxWx,2013-06-19 08:14:00,
2013-06-19 03:19:00,64.1,64.0,30.04,NNE,32,0.0,0.0,99,0.00,,,0.00,TxWx,2013-06-19 08:19:00,
2013-06-19 03:24:00,64.0,64.0,30.04,NE,55,0.0,0.0,99,0.00,,,0.00,TxWx,2013-06-19 08:24:00,
2013-06-19 03:30:00,64.0,64.0,30.04,NNE,32,0.0,0.0,99,0.00,,,0.00,TxWx,2013-06-19 08:30:00,
2013-06-19 03:35:00,63.9,64.0,30.04,NNE,32,0.0,0.0,99,0.00,,,0.00,TxWx,2013-06-19 08:35:00,
2013-06-19 03:42:00,63.9,64.0,30.04,NNE,32,0.0,0.0,99,0.00,,,0.00,TxWx,2013-06-19 08:42:00,
2013-06-19 03:47:00,63.8,64.0,30.04,NNE,32,0.0,0.0,99,0.00,,,0.00,TxWx,2013-06-19 08:47:00,
2013-06-19 03:52:00,63.7,64.0,30.04,NE,55,0.0,0.0,99,0.00,,,0.00,TxWx,2013-06-19 08:52:00,
2013-06-19 03:58:00,63.7,64.0,30.04,NNE,32,0.0,0.0,99,0.00,,,0.00,TxWx,2013-06-19 08:58:00,
2013-06-19 04:03:00,63.6,64.0,30.04,NE,55,0.0,0.0,99,0.00,,,0.00,TxWx,2013-06-19 09:03:00,
2013-06-19 04:08:00,63.6,64.0,30.04,North,10,0.0,0.0,99,0.00,,,0.00,TxWx,2013-06-19 09:08:00,
2013-06-19 04:13:00,63.5,64.0,30.04,NNE,32,0.0,0.0,99,0.00,,,0.00,TxWx,2013-06-19 09:13:00,
2013-06-19 04:19:00,63.5,63.0,30.04,NNE,32,0.0,0.0,99,0.00,,,0.00,TxWx,2013-06-19 09:19:00,
2013-06-19 04:24:00,63.4,63.0,30.04,ENE,77,0.0,0.6,99,0.00,,,0.00,TxWx,2013-06-19 09:24:00,
2013-06-19 04:30:00,63.3,63.0,30.04,NNE,32,0.0,0.0,99,0.00,,,0.00,TxWx,2013-06-19 09:30:00,
2013-06-19 04:36:00,63.3,63.0,30.04,NNE,32,0.0,0.0,99,0.00,,,0.00,TxWx,2013-06-19 09:36:00,
2013-06-19 04:41:00,63.2,63.0,30.04,NNW,347,0.6,0.6,99,0.00,,,0.00,TxWx,2013-06-19 09:41:00,
2013-06-19 04:46:00,63.1,63.0,30.04,NE,55,0.0,0.6,99,0.00,,,0.00,TxWx,2013-06-19 09:46:00,
2013-06-19 04:51:00,63.1,63.0,30.04,NE,55,0.0,0.0,99,0.00,,,0.00,TxWx,2013-06-19 09:51:00,
2013-06-19 04:57:00,63.0,63.0,30.04,NNE,32,0.0,0.0,99,0.00,,,0.00,TxWx,2013-06-19 09:57:00,
2013-06-19 05:02:00,63.0,63.0,30.03,NE,55,0.0,0.0,99,0.00,,,0.00,TxWx,2013-06-19 10:02:00,
2013-06-19 05:07:00,63.0,63.0,30.04,NE,55,0.0,0.0,99,0.00,,,0.00,TxWx,2013-06-19 10:07:00,
2013-06-19 05:12:00,63.0,63.0,30.04,NE,55,0.0,0.6,99,0.00,,,0.00,TxWx,2013-06-19 10:12:00,
2013-06-19 05:18:00,62.9,63.0,30.04,NNW,347,0.0,0.0,100,0.00,,,0.00,TxWx,2013-06-19 10:18:00,
2013-06-19 05:23:00,62.8,63.0,30.04,NE,55,0.0,0.0,100,0.00,,,0.00,TxWx,2013-06-19 10:23:00,
2013-06-19 05:29:00,62.8,63.0,30.05,NE,55,0.0,0.0,100,0.00,,,0.00,TxWx,2013-06-19 10:29:00,
2013-06-19 05:34:00,62.8,63.0,30.05,NE,55,0.0,0.0,100,0.00,,,0.00,TxWx,2013-06-19 10:34:00,
2013-06-19 05:40:00,62.7,63.0,30.05,NNE,32,0.0,0.0,100,0.00,,,0.00,TxWx,2013-06-19 10:40:00,
2013-06-19 05:45:00,62.7,63.0,30.06,NNE,32,0.0,0.0,100,0.00,,,0.00,TxWx,2013-06-19 10:45:00,
2013-06-19 05:50:00,62.6,63.0,30.06,ENE,77,0.0,0.6,100,0.00,,,0.00,TxWx,2013-06-19 10:50:00,
2013-06-19 05:56:00,62.6,63.0,30.05,NE,55,0.6,0.6,100,0.00,,,0.00,TxWx,2013-06-19 10:56:00,
2013-06-19 06:01:00,62.6,63.0,30.05,NE,55,0.0,0.6,100,0.00,,,0.00,TxWx,2013-06-19 11:01:00,
2013-06-19 06:06:00,62.5,63.0,30.05,NNE,32,0.0,0.0,100,0.00,,,0.00,TxWx,2013-06-19 11:06:00,
2013-06-19 06:12:00,62.5,62.0,30.05,NE,55,0.0,0.0,100,0.00,,,0.00,TxWx,2013-06-19 11:12:00,
2013-06-19 06:17:00,62.5,62.0,30.05,NNE,32,0.0,0.0,100,0.00,,,0.00,TxWx,2013-06-19 11:17:00,
2013-06-19 06:22:00,62.4,62.0,30.05,NE,55,0.6,0.6,100,0.00,,,0.00,TxWx,2013-06-19 11:22:00,
2013-06-19 06:27:00,62.5,62.0,30.05,NE,55,0.0,0.0,100,0.00,,,0.00,TxWx,2013-06-19 11:27:00,
2013-06-19 06:33:00,62.5,62.0,30.05,NE,55,0.6,1.2,100,0.00,,,0.00,TxWx,2013-06-19 11:33:00,
2013-06-19 06:38:00,62.6,63.0,30.05,NNE,32,0.0,0.6,100,0.00,,,0.00,TxWx,2013-06-19 11:38:00,
2013-06-19 06:44:00,62.7,63.0,30.06,NE,55,0.0,0.6,100,0.00,,,0.00,TxWx,2013-06-19 11:44:00,
2013-06-19 06:49:00,62.8,63.0,30.06,NNE,32,0.0,0.0,100,0.00,,,0.00,TxWx,2013-06-19 11:49:00,
2013-06-19 06:54:00,62.9,63.0,30.06,NE,55,0.0,1.2,100,0.00,,,0.00,TxWx,2013-06-19 11:54:00,
2013-06-19 07:01:00,63.1,63.0,30.06,North,10,0.6,1.2,100,0.00,,,0.00,TxWx,2013-06-19 12:01:00,
2013-06-19 07:06:00,63.3,63.0,30.06,ESE,122,1.2,1.9,100,0.00,,,0.00,TxWx,2013-06-19 12:06:00,
2013-06-19 07:12:00,63.6,64.0,30.07,NE,55,0.0,1.2,100,0.00,,,0.00,TxWx,2013-06-19 12:12:00,
2013-06-19 07:17:00,63.7,64.0,30.07,NE,55,0.6,0.6,100,0.00,,,0.00,TxWx,2013-06-19 12:17:00,
2013-06-19 07:22:00,63.9,64.0,30.06,NE,55,0.0,0.6,100,0.00,,,0.00,TxWx,2013-06-19 12:22:00,
2013-06-19 07:27:00,64.1,64.0,30.06,NE,55,0.6,1.9,100,0.00,,,0.00,TxWx,2013-06-19 12:27:00,
2013-06-19 07:33:00,64.3,64.0,30.06,East,100,1.2,3.7,100,0.00,,,0.00,TxWx,2013-06-19 12:33:00,
2013-06-19 07:38:00,64.5,65.0,30.06,East,100,0.6,3.7,100,0.00,,,0.00,TxWx,2013-06-19 12:38:00,
2013-06-19 07:44:00,64.8,65.0,30.06,ENE,77,0.6,1.9,100,0.00,,,0.00,TxWx,2013-06-19 12:44:00,
2013-06-19 07:49:00,65.0,65.0,30.06,SE,145,0.0,1.9,100,0.00,,,0.00,TxWx,2013-06-19 12:49:00,
2013-06-19 07:54:00,65.3,65.0,30.06,ENE,77,1.2,3.7,100,0.00,,,0.00,TxWx,2013-06-19 12:54:00,
2013-06-19 07:59:00,65.6,66.0,30.06,East,100,3.7,3.7,100,0.00,,,0.00,TxWx,2013-06-19 12:59:00,
2013-06-19 08:05:00,66.0,66.0,30.06,NNE,32,0.6,3.1,100,0.00,,,0.00,TxWx,2013-06-19 13:05:00,
2013-06-19 08:10:00,66.4,66.0,30.06,South,190,0.6,3.7,100,0.00,,,0.00,TxWx,2013-06-19 13:10:00,
2013-06-19 08:15:00,66.9,67.0,30.06,East,100,2.5,4.3,100,0.00,,,0.00,TxWx,2013-06-19 13:15:00,
2013-06-19 08:20:00,67.5,68.0,30.06,ESE,122,0.6,5.0,100,0.00,,,0.00,TxWx,2013-06-19 13:20:00,
2013-06-19 08:26:00,68.0,68.0,30.07,South,190,0.6,5.6,99,0.00,,,0.00,TxWx,2013-06-19 13:26:00,
2013-06-19 08:31:00,68.5,69.0,30.07,NE,55,0.6,1.9,99,0.00,,,0.00,TxWx,2013-06-19 13:31:00,
2013-06-19 08:36:00,68.9,68.0,30.07,SW,235,1.9,5.6,98,0.00,,,0.00,TxWx,2013-06-19 13:36:00,
2013-06-19 08:41:00,69.5,69.0,30.07,ESE,122,0.6,1.2,97,0.00,,,0.00,TxWx,2013-06-19 13:41:00,
2013-06-19 08:46:00,69.9,69.0,30.07,ENE,77,1.2,4.3,97,0.00,,,0.00,TxWx,2013-06-19 13:46:00,
2013-06-19 08:51:00,70.2,68.0,30.07,South,190,1.9,5.6,95,0.00,,,0.00,TxWx,2013-06-19 13:51:00,
2013-06-19 08:57:00,70.8,69.0,30.07,SSE,167,0.0,1.9,95,0.00,,,0.00,TxWx,2013-06-19 13:57:00,
2013-06-19 09:02:00,71.1,69.0,30.07,East,100,0.6,1.9,95,0.00,,,0.00,TxWx,2013-06-19 14:02:00,
2013-06-19 09:08:00,71.3,69.0,30.08,NE,55,1.2,1.2,94,0.00,,,0.00,TxWx,2013-06-19 14:08:00,
2013-06-19 09:13:00,71.8,70.0,30.08,NE,55,0.6,1.2,94,0.00,,,0.00,TxWx,2013-06-19 14:13:00,
2013-06-19 09:18:00,72.0,69.0,30.08,ESE,122,3.1,3.7,92,0.00,,,0.00,TxWx,2013-06-19 14:18:00,
2013-06-19 09:24:00,72.4,69.0,30.08,NE,55,0.6,2.5,91,0.00,,,0.00,TxWx,2013-06-19 14:24:00,
2013-06-19 09:29:00,72.7,70.0,30.08,ENE,77,1.2,2.5,91,0.00,,,0.00,TxWx,2013-06-19 14:29:00,
2013-06-19 09:34:00,72.8,70.0,30.07,WNW,302,3.1,5.0,90,0.00,,,0.00,TxWx,2013-06-19 14:34:00,
2013-06-19 09:39:00,73.0,70.0,30.08,South,190,1.9,3.7,89,0.00,,,0.00,TxWx,2013-06-19 14:39:00,
2013-06-19 09:44:00,73.3,70.0,30.08,East,100,2.5,3.7,89,0.00,,,0.00,TxWx,2013-06-19 14:44:00,
2013-06-19 09:49:00,73.5,69.0,30.08,NNE,32,0.0,2.5,89,0.00,,,0.00,TxWx,2013-06-19 14:49:00,
2013-06-19 09:55:00,73.7,70.0,30.08,East,100,1.9,1.9,89,0.00,,,0.00,TxWx,2013-06-19 14:55:00,
2013-06-19 10:00:00,73.9,70.0,30.08,NE,55,0.6,1.2,88,0.00,,,0.00,TxWx,2013-06-19 15:00:00,
2013-06-19 10:05:00,74.1,70.0,30.08,WSW,257,1.2,1.2,87,0.00,,,0.00,TxWx,2013-06-19 15:05:00,
2013-06-19 10:12:00,74.4,69.0,30.07,SSW,212,1.2,3.7,85,0.00,,,0.00,TxWx,2013-06-19 15:12:00,
2013-06-19 10:17:00,74.6,70.0,30.07,NNW,347,1.9,3.7,85,0.00,,,0.00,TxWx,2013-06-19 15:17:00,
2013-06-19 10:22:00,74.9,70.0,30.07,NE,55,0.6,1.9,84,0.00,,,0.00,TxWx,2013-06-19 15:22:00,
2013-06-19 10:27:00,75.0,70.0,30.07,SW,235,1.2,2.5,84,0.00,,,0.00,TxWx,2013-06-19 15:27:00,
2013-06-19 10:32:00,75.2,70.0,30.08,West,280,1.2,1.9,85,0.00,,,0.00,TxWx,2013-06-19 15:32:00,
2013-06-19 10:38:00,75.2,69.0,30.07,WSW,257,3.1,4.3,82,0.00,,,0.00,TxWx,2013-06-19 15:38:00,
2013-06-19 10:43:00,75.3,69.0,30.07,North,10,1.9,5.6,82,0.00,,,0.00,TxWx,2013-06-19 15:43:00,
2013-06-19 10:48:00,75.5,69.0,30.07,SW,235,3.1,4.3,80,0.00,,,0.00,TxWx,2013-06-19 15:48:00,
2013-06-19 10:53:00,75.9,70.0,30.07,East,100,1.9,3.7,81,0.00,,,0.00,TxWx,2013-06-19 15:53:00,
2013-06-19 10:59:00,76.1,70.0,30.07,East,100,4.3,5.6,81,0.00,,,0.00,TxWx,2013-06-19 15:59:00,
2013-06-19 11:04:00,76.3,69.0,30.07,ENE,77,0.6,1.9,80,0.00,,,0.00,TxWx,2013-06-19 16:04:00,
2013-06-19 11:09:00,76.5,70.0,30.07,SSE,167,1.9,2.5,81,0.00,,,0.00,TxWx,2013-06-19 16:09:00,
2013-06-19 11:14:00,76.8,71.0,30.07,NE,55,1.2,5.6,81,0.00,,,0.00,TxWx,2013-06-19 16:14:00,
2013-06-19 11:20:00,76.8,70.0,30.07,NE,55,3.1,3.7,80,0.00,,,0.00,TxWx,2013-06-19 16:20:00,
2013-06-19 11:25:00,77.0,70.0,30.06,NE,55,2.5,5.6,79,0.00,,,0.00,TxWx,2013-06-19 16:25:00,
2013-06-19 11:30:00,77.3,70.0,30.06,SE,145,3.7,6.8,80,0.00,,,0.00,TxWx,2013-06-19 16:30:00,
2013-06-19 11:35:00,77.9,70.0,30.06,East,100,3.7,6.8,77,0.00,,,0.00,TxWx,2013-06-19 16:35:00,
2013-06-19 11:41:00,77.9,69.0,30.06,NNE,32,1.2,3.7,75,0.00,,,0.00,TxWx,2013-06-19 16:41:00,
2013-06-19 11:46:00,78.2,70.0,30.06,SSE,167,1.2,5.0,77,0.00,,,0.00,TxWx,2013-06-19 16:46:00,
2013-06-19 11:51:00,78.4,71.0,30.06,East,100,1.9,1.9,78,0.00,,,0.00,TxWx,2013-06-19 16:51:00,
2013-06-19 11:57:00,78.4,70.0,30.05,West,280,3.1,5.0,77,0.00,,,0.00,TxWx,2013-06-19 16:57:00,
2013-06-19 12:02:00,78.7,71.0,30.05,South,190,3.1,5.6,77,0.00,,,0.00,TxWx,2013-06-19 17:02:00,
2013-06-19 12:07:00,79.2,71.0,30.05,ESE,122,1.2,3.1,77,0.00,,,0.00,TxWx,2013-06-19 17:07:00,
2013-06-19 12:12:00,79.3,71.0,30.05,ESE,122,1.2,3.7,76,0.00,,,0.00,TxWx,2013-06-19 17:12:00,
2013-06-19 12:18:00,79.2,70.0,30.05,South,190,3.7,8.7,75,0.00,,,0.00,TxWx,2013-06-19 17:18:00,
2013-06-19 12:23:00,79.7,72.0,30.05,SSE,167,4.3,6.2,76,0.00,,,0.00,TxWx,2013-06-19 17:23:00,
2013-06-19 12:28:00,79.9,71.0,30.05,SW,235,5.6,5.6,75,0.00,,,0.00,TxWx,2013-06-19 17:28:00,
2013-06-19 12:33:00,80.3,71.0,30.05,ESE,122,1.9,4.3,74,0.00,,,0.00,TxWx,2013-06-19 17:33:00,
2013-06-19 12:39:00,80.7,72.0,30.05,SSE,167,3.7,3.7,75,0.00,,,0.00,TxWx,2013-06-19 17:39:00,
2013-06-19 12:44:00,80.8,71.0,30.04,South,190,1.2,3.1,72,0.00,,,0.00,TxWx,2013-06-19 17:44:00,
2013-06-19 12:49:00,81.1,70.0,30.04,SW,235,1.2,2.5,70,0.00,,,0.00,TxWx,2013-06-19 17:49:00,
2013-06-19 12:55:00,80.7,70.0,30.04,NE,55,1.2,3.1,70,0.00,,,0.00,TxWx,2013-06-19 17:55:00,
2013-06-19 13:00:00,80.9,70.0,30.04,ESE,122,4.3,4.3,70,0.00,,,0.00,TxWx,2013-06-19 18:00:00,
2013-06-19 13:05:00,81.2,71.0,30.03,NNE,32,0.6,3.7,72,0.00,,,0.00,TxWx,2013-06-19 18:05:00,
2013-06-19 13:11:00,81.4,70.0,30.03,ENE,77,1.9,4.3,71,0.00,,,0.00,TxWx,2013-06-19 18:11:00,
2013-06-19 13:16:00,81.3,70.0,30.03,ESE,122,2.5,5.0,70,0.00,,,0.00,TxWx,2013-06-19 18:16:00,
2013-06-19 13:22:00,81.3,71.0,30.03,NE,55,1.9,3.7,71,0.00,,,0.00,TxWx,2013-06-19 18:22:00,
2013-06-19 13:27:00,81.1,69.0,30.03,SSE,167,1.2,5.6,68,0.00,,,0.00,TxWx,2013-06-19 18:27:00,
2013-06-19 13:32:00,81.3,69.0,30.03,East,100,6.2,8.0,68,0.00,,,0.00,TxWx,2013-06-19 18:32:00,
2013-06-19 13:38:00,81.5,70.0,30.03,NNW,347,1.9,3.1,70,0.00,,,0.00,TxWx,2013-06-19 18:38:00,
2013-06-19 13:43:00,81.7,72.0,30.03,NNE,32,1.2,3.1,72,0.00,,,0.00,TxWx,2013-06-19 18:43:00,
2013-06-19 13:48:00,81.8,71.0,30.03,SSE,167,1.9,3.1,71,0.00,,,0.00,TxWx,2013-06-19 18:48:00,
2013-06-19 13:53:00,81.8,71.0,30.02,SSW,212,2.5,3.7,70,0.00,,,0.00,TxWx,2013-06-19 18:53:00,
2013-06-19 13:58:00,81.7,69.0,30.02,SW,235,7.4,7.4,66,0.00,,,0.00,TxWx,2013-06-19 18:58:00,
2013-06-19 14:04:00,81.7,70.0,30.02,ENE,77,2.5,5.6,67,0.00,,,0.00,TxWx,2013-06-19 19:04:00,
2013-06-19 14:09:00,81.7,69.0,30.02,SSE,167,1.9,3.1,66,0.00,,,0.00,TxWx,2013-06-19 19:09:00,
2013-06-19 14:14:00,81.6,69.0,30.02,WNW,302,3.7,7.4,66,0.00,,,0.00,TxWx,2013-06-19 19:14:00,
2013-06-19 14:20:00,81.9,71.0,30.02,ESE,122,3.1,7.4,69,0.00,,,0.00,TxWx,2013-06-19 19:20:00,
2013-06-19 14:26:00,81.8,69.0,30.02,SSE,167,3.7,5.0,66,0.00,,,0.00,TxWx,2013-06-19 19:26:00,
2013-06-19 14:31:00,82.0,69.0,30.02,South,190,0.6,6.8,66,0.00,,,0.00,TxWx,2013-06-19 19:31:00,
2013-06-19 14:37:00,82.1,69.0,30.02,NE,55,1.2,5.0,66,0.00,,,0.00,TxWx,2013-06-19 19:37:00,
2013-06-19 14:42:00,82.1,70.0,30.02,SW,235,3.7,8.7,67,0.00,,,0.00,TxWx,2013-06-19 19:42:00,
2013-06-19 14:47:00,82.3,69.0,30.02,ESE,122,1.2,6.8,66,0.00,,,0.00,TxWx,2013-06-19 19:47:00,
2013-06-19 14:52:00,82.5,69.0,30.02,SW,235,3.1,5.0,65,0.00,,,0.00,TxWx,2013-06-19 19:52:00,
2013-06-19 14:58:00,82.8,70.0,30.02,NNE,32,1.9,3.1,65,0.00,,,0.00,TxWx,2013-06-19 19:58:00,
2013-06-19 15:04:00,83.1,71.0,30.01,SW,235,8.0,8.7,67,0.00,,,0.00,TxWx,2013-06-19 20:04:00,
2013-06-19 15:09:00,82.7,69.0,30.02,SW,235,1.9,5.0,62,0.00,,,0.00,TxWx,2013-06-19 20:09:00,
2013-06-19 15:15:00,82.7,70.0,30.02,South,190,2.5,4.3,65,0.00,,,0.00,TxWx,2013-06-19 20:15:00,
2013-06-19 15:20:00,82.6,69.0,30.02,West,280,5.6,6.2,64,0.00,,,0.00,TxWx,2013-06-19 20:20:00,
2013-06-19 15:25:00,82.6,69.0,30.02,SSE,167,4.3,8.0,63,0.00,,,0.00,TxWx,2013-06-19 20:25:00,
2013-06-19 15:30:00,82.7,70.0,30.02,NE,55,3.1,6.2,64,0.00,,,0.00,TxWx,2013-06-19 20:30:00,
2013-06-19 15:35:00,82.8,68.0,30.02,NNW,347,3.1,8.7,61,0.00,,,0.00,TxWx,2013-06-19 20:35:00,
2013-06-19 15:41:00,83.1,69.0,30.02,ESE,122,0.6,5.0,63,0.00,,,0.00,TxWx,2013-06-19 20:41:00,
2013-06-19 15:46:00,82.9,69.0,30.02,ESE,122,2.5,4.3,62,0.00,,,0.00,TxWx,2013-06-19 20:46:00,
2013-06-19 15:51:00,82.9,68.0,30.02,SW,235,2.5,3.7,60,0.00,,,0.00,TxWx,2013-06-19 20:51:00,
2013-06-19 15:57:00,82.8,68.0,30.02,SW,235,4.3,6.8,62,0.00,,,0.00,TxWx,2013-06-19 20:57:00,
2013-06-19 16:02:00,83.0,66.0,30.02,South,190,4.3,5.6,57,0.00,,,0.00,TxWx,2013-06-19 21:02:00,
2013-06-19 16:07:00,83.1,65.0,30.02,NW,325,3.7,5.0,56,0.00,,,0.00,TxWx,2013-06-19 21:07:00,
2013-06-19 16:13:00,83.3,66.0,30.02,SE,145,3.1,4.3,56,0.00,,,0.00,TxWx,2013-06-19 21:13:00,
2013-06-19 16:18:00,82.9,65.0,30.02,ESE,122,2.5,6.8,55,0.00,,,0.00,TxWx,2013-06-19 21:18:00,
2013-06-19 16:23:00,82.5,66.0,30.02,SSW,212,2.5,4.3,57,0.00,,,0.00,TxWx,2013-06-19 21:23:00,
2013-06-19 16:29:00,82.3,65.0,30.02,NNW,347,1.2,5.0,56,0.00,,,0.00,TxWx,2013-06-19 21:29:00,
2013-06-19 16:34:00,82.0,66.0,30.02,South,190,2.5,5.6,60,0.00,,,0.00,TxWx,2013-06-19 21:34:00,
2013-06-19 16:39:00,81.8,66.0,30.02,ESE,122,2.5,5.0,58,0.00,,,0.00,TxWx,2013-06-19 21:39:00,
2013-06-19 16:44:00,81.8,67.0,30.02,NNE,32,1.9,4.3,61,0.00,,,0.00,TxWx,2013-06-19 21:44:00,
2013-06-19 16:49:00,81.8,67.0,30.02,West,280,3.1,4.3,60,0.00,,,0.00,TxWx,2013-06-19 21:49:00,
2013-06-19 16:55:00,82.1,67.0,30.01,South,190,2.5,3.7,60,0.00,,,0.00,TxWx,2013-06-19 21:55:00,
2013-06-19 17:00:00,82.1,67.0,30.01,NE,55,1.2,7.4,61,0.00,,,0.00,TxWx,2013-06-19 22:00:00,
2013-06-19 17:05:00,82.3,67.0,30.01,SSW,212,1.2,5.6,61,0.00,,,0.00,TxWx,2013-06-19 22:05:00,
2013-06-19 17:11:00,82.6,68.0,30.01,West,280,1.9,3.1,61,0.00,,,0.00,TxWx,2013-06-19 22:11:00,
2013-06-19 17:16:00,83.0,68.0,30.01,WSW,257,2.5,3.7,60,0.00,,,0.00,TxWx,2013-06-19 22:16:00,
2013-06-19 17:22:00,83.0,67.0,30.01,West,280,2.5,3.1,59,0.00,,,0.00,TxWx,2013-06-19 22:22:00,
2013-06-19 17:27:00,83.2,68.0,30.01,ESE,122,3.7,3.7,61,0.00,,,0.00,TxWx,2013-06-19 22:27:00,
2013-06-19 17:33:00,83.5,69.0,30.00,West,280,3.1,6.2,61,0.00,,,0.00,TxWx,2013-06-19 22:33:00,
2013-06-19 17:38:00,83.6,70.0,30.00,WSW,257,0.6,1.9,62,0.00,,,0.00,TxWx,2013-06-19 22:38:00,
2013-06-19 17:43:00,83.6,70.0,30.00,South,190,2.5,4.3,63,0.00,,,0.00,TxWx,2013-06-19 22:43:00,
2013-06-19 17:49:00,83.2,67.0,30.00,NNW,347,2.5,8.0,58,0.00,,,0.00,TxWx,2013-06-19 22:49:00,
2013-06-19 17:54:00,83.4,68.0,30.00,South,190,1.2,3.1,60,0.00,,,0.00,TxWx,2013-06-19 22:54:00,
2013-06-19 18:00:00,83.4,67.0,30.00,ESE,122,1.2,1.9,60,0.00,,,0.00,TxWx,2013-06-19 23:00:00,
2013-06-19 18:05:00,83.4,69.0,30.00,East,100,1.2,2.5,62,0.00,,,0.00,TxWx,2013-06-19 23:05:00,
2013-06-19 18:11:00,83.0,67.0,30.00,WSW,257,1.9,5.0,59,0.00,,,0.00,TxWx,2013-06-19 23:11:00,
2013-06-19 18:16:00,82.9,68.0,30.00,South,190,1.9,2.5,60,0.00,,,0.00,TxWx,2013-06-19 23:16:00,
2013-06-19 18:21:00,82.6,67.0,29.99,WNW,302,3.1,3.7,60,0.00,,,0.00,TxWx,2013-06-19 23:21:00,
2013-06-19 18:26:00,82.3,67.0,29.99,West,280,1.9,3.1,61,0.00,,,0.00,TxWx,2013-06-19 23:26:00,
2013-06-19 18:32:00,82.2,66.0,29.99,SSE,167,1.9,7.4,60,0.00,,,0.00,TxWx,2013-06-19 23:32:00,
2013-06-19 18:37:00,82.4,66.0,29.99,WSW,257,2.5,6.2,60,0.00,,,0.00,TxWx,2013-06-19 23:37:00,
2013-06-19 18:43:00,82.4,67.0,29.99,South,190,1.2,1.9,60,0.00,,,0.00,TxWx,2013-06-19 23:43:00,
2013-06-19 18:48:00,82.2,66.0,29.99,ESE,122,1.2,5.6,59,0.00,,,0.00,TxWx,2013-06-19 23:48:00,
2013-06-19 18:53:00,82.1,67.0,29.99,West,280,1.2,2.5,61,0.00,,,0.00,TxWx,2013-06-19 23:53:00,
2013-06-19 19:00:00,82.0,66.0,29.99,NE,55,1.9,4.3,60,0.00,,,0.00,TxWx,2013-06-20 00:00:00,
2013-06-19 19:05:00,82.0,67.0,29.99,SW,235,1.9,1.9,61,0.00,,,0.00,TxWx,2013-06-20 00:05:00,
2013-06-19 19:10:00,81.8,67.0,29.99,North,10,0.6,1.9,61,0.00,,,0.00,TxWx,2013-06-20 00:10:00,
2013-06-19 19:16:00,81.7,67.0,29.99,East,100,0.6,5.6,61,0.00,,,0.00,TxWx,2013-06-20 00:16:00,
2013-06-19 19:21:00,81.3,67.0,29.99,South,190,3.1,3.7,63,0.00,,,0.00,TxWx,2013-06-20 00:21:00,
2013-06-19 19:26:00,81.1,67.0,29.99,SSE,167,2.5,7.4,63,0.00,,,0.00,TxWx,2013-06-20 00:26:00,
2013-06-19 19:31:00,81.0,67.0,30.00,North,10,1.2,3.1,62,0.00,,,0.00,TxWx,2013-06-20 00:31:00,
2013-06-19 19:36:00,80.9,66.0,30.00,East,100,0.6,3.7,62,0.00,,,0.00,TxWx,2013-06-20 00:36:00,
2013-06-19 19:42:00,80.8,67.0,29.99,SSW,212,1.9,3.1,63,0.00,,,0.00,TxWx,2013-06-20 00:42:00,
2013-06-19 19:47:00,80.5,67.0,29.99,South,190,1.2,1.2,63,0.00,,,0.00,TxWx,2013-06-20 00:47:00,
2013-06-19 19:52:00,80.4,66.0,29.99,WNW,302,2.5,2.5,63,0.00,,,0.00,TxWx,2013-06-20 00:52:00,
2013-06-19 19:57:00,80.3,66.0,29.99,SE,145,1.9,3.1,64,0.00,,,0.00,TxWx,2013-06-20 00:57:00,
2013-06-19 20:03:00,80.1,67.0,29.99,SSW,212,1.2,4.3,64,0.00,,,0.00,TxWx,2013-06-20 01:03:00,
2013-06-19 20:08:00,79.9,67.0,29.99,NE,55,0.6,1.2,65,0.00,,,0.00,TxWx,2013-06-20 01:08:00,
2013-06-19 20:13:00,79.7,67.0,30.00,ENE,77,0.6,1.2,65,0.00,,,0.00,TxWx,2013-06-20 01:13:00,
2013-06-19 20:18:00,79.5,66.0,30.00,SE,145,1.2,1.9,66,0.00,,,0.00,TxWx,2013-06-20 01:18:00,
2013-06-19 20:24:00,79.2,67.0,30.00,WNW,302,0.0,1.2,66,0.00,,,0.00,TxWx,2013-06-20 01:24:00,
2013-06-19 20:29:00,78.9,67.0,30.00,WNW,302,1.2,1.9,67,0.00,,,0.00,TxWx,2013-06-20 01:29:00,
2013-06-19 20:35:00,78.5,67.0,30.00,West,280,0.6,2.5,67,0.00,,,0.00,TxWx,2013-06-20 01:35:00,
2013-06-19 20:40:00,78.3,67.0,30.00,ENE,77,0.0,0.6,68,0.00,,,0.00,TxWx,2013-06-20 01:40:00,
2013-06-19 20:45:00,78.0,67.0,30.00,NNE,32,0.0,1.2,68,0.00,,,0.00,TxWx,2013-06-20 01:45:00,
2013-06-19 20:51:00,77.7,67.0,30.00,North,10,0.0,0.6,69,0.00,,,0.00,TxWx,2013-06-20 01:51:00,
2013-06-19 20:56:00,77.5,67.0,30.00,NNE,32,0.0,0.6,69,0.00,,,0.00,TxWx,2013-06-20 01:56:00,
2013-06-19 21:01:00,77.4,66.0,30.01,NNE,32,0.0,0.6,69,0.00,,,0.00,TxWx,2013-06-20 02:01:00,
2013-06-19 21:07:00,77.2,66.0,30.01,NE,55,0.0,0.0,70,0.00,,,0.00,TxWx,2013-06-20 02:07:00,
2013-06-19 21:12:00,77.0,67.0,30.01,NE,55,0.0,0.6,71,0.00,,,0.00,TxWx,2013-06-20 02:12:00,
2013-06-19 21:17:00,76.7,67.0,30.01,NE,55,0.0,0.6,71,0.00,,,0.00,TxWx,2013-06-20 02:17:00,
2013-06-19 21:23:00,76.5,66.0,30.01,NE,55,0.0,0.6,72,0.00,,,0.00,TxWx,2013-06-20 02:23:00,
2013-06-19 21:28:00,76.3,66.0,30.01,NNE,32,0.0,0.6,72,0.00,,,0.00,TxWx,2013-06-20 02:28:00,
2013-06-19 21:33:00,76.1,66.0,30.01,NE,55,0.0,0.6,72,0.00,,,0.00,TxWx,2013-06-20 02:33:00,
2013-06-19 21:39:00,75.9,67.0,30.01,NNE,32,0.0,0.6,73,0.00,,,0.00,TxWx,2013-06-20 02:39:00,
2013-06-19 21:44:00,75.6,67.0,30.02,NE,55,0.6,0.6,74,0.00,,,0.00,TxWx,2013-06-20 02:44:00,
2013-06-19 21:50:00,75.5,67.0,30.02,NNE,32,0.0,0.6,75,0.00,,,0.00,TxWx,2013-06-20 02:50:00,
2013-06-19 21:55:00,75.2,66.0,30.02,NE,55,0.0,0.6,75,0.00,,,0.00,TxWx,2013-06-20 02:55:00,
2013-06-19 22:01:00,75.0,67.0,30.02,NNE,32,0.0,0.6,75,0.00,,,0.00,TxWx,2013-06-20 03:01:00,
2013-06-19 22:06:00,74.7,67.0,30.02,SSW,212,0.6,0.6,77,0.00,,,0.00,TxWx,2013-06-20 03:06:00,
2013-06-19 22:12:00,74.5,67.0,30.02,NE,55,0.0,0.6,77,0.00,,,0.00,TxWx,2013-06-20 03:12:00,
2013-06-19 22:17:00,74.3,66.0,30.03,NE,55,1.2,2.5,77,0.00,,,0.00,TxWx,2013-06-20 03:17:00,
2013-06-19 22:22:00,74.2,66.0,30.03,SE,145,3.1,3.7,77,0.00,,,0.00,TxWx,2013-06-20 03:22:00,
2013-06-19 22:27:00,74.0,67.0,30.03,NNE,32,0.0,0.6,78,0.00,,,0.00,TxWx,2013-06-20 03:27:00,
2013-06-19 22:32:00,73.9,67.0,30.04,NE,55,0.0,1.2,79,0.00,,,0.00,TxWx,2013-06-20 03:32:00,
2013-06-19 22:38:00,73.8,67.0,30.04,ESE,122,1.2,1.9,79,0.00,,,0.00,TxWx,2013-06-20 03:38:00,
2013-06-19 22:43:00,73.6,67.0,30.04,NNE,32,0.6,1.2,80,0.00,,,0.00,TxWx,2013-06-20 03:43:00,
2013-06-19 22:48:00,73.6,67.0,30.04,SE,145,1.9,2.5,80,0.00,,,0.00,TxWx,2013-06-20 03:48:00,
2013-06-19 22:54:00,73.5,68.0,30.04,SE,145,1.2,1.9,81,0.00,,,0.00,TxWx,2013-06-20 03:54:00,
2013-06-19 22:59:00,73.4,67.0,30.04,ENE,77,0.6,1.2,81,0.00,,,0.00,TxWx,2013-06-20 03:59:00,
2013-06-19 23:01:00,73.4,67.0,30.04,ENE,77,0.6,1.2,81,0.00,,,0.00,TxWx,2013-06-20 04:01:00,
2013-06-19 23:02:00,73.3,67.0,30.04,ENE,77,0.6,0.6,81,0.00,,,0.00,TxWx,2013-06-20 04:02:00,
2013-06-19 23:07:00,73.4,67.0,30.04,East,100,3.1,3.1,82,0.00,,,0.00,TxWx,2013-06-20 04:07:00,
2013-06-19 23:09:00,73.4,67.0,30.04,SSE,167,0.6,2.5,82,0.00,,,0.00,TxWx,2013-06-20 04:09:00,
2013-06-19 23:14:00,73.4,67.0,30.05,ENE,77,0.0,1.9,82,0.00,,,0.00,TxWx,2013-06-20 04:14:00,
2013-06-19 23:20:00,73.4,67.0,30.05,ESE,122,1.2,2.5,82,0.00,,,0.00,TxWx,2013-06-20 04:20:00,
2013-06-19 23:25:00,73.5,67.0,30.05,NE,55,2.5,3.7,82,0.00,,,0.00,TxWx,2013-06-20 04:25:00,
2013-06-19 23:30:00,73.5,67.0,30.05,East,100,1.9,1.9,82,0.00,,,0.00,TxWx,2013-06-20 04:30:00,
2013-06-19 23:36:00,73.5,68.0,30.05,East,100,1.2,1.2,82,0.00,,,0.00,TxWx,2013-06-20 04:36:00,
2013-06-19 23:41:00,73.5,68.0,30.04,East,100,0.6,1.2,82,0.00,,,0.00,TxWx,2013-06-20 04:41:00,
2013-06-19 23:46:00,73.6,68.0,30.05,ESE,122,2.5,2.5,82,0.00,,,0.00,TxWx,2013-06-20 04:46:00,
2013-06-19 23:51:00,73.6,68.0,30.05,East,100,0.6,2.5,83,0.00,,,0.00,TxWx,2013-06-20 04:51:00,
2013-06-19 23:57:00,73.5,68.0,30.05,ENE,77,1.9,1.9,82,0.00,,,0.00,TxWx,2013-06-20 04:57:00,